Theta_e
329 336 356 354 353 349 347 346 344 342 342 341 340 339 338 337 335 334 333 332 332 332 332 333 333 334 336 337 339 340 342 343 345 352 353 356 355 355 357 357 359 355 359
327 337 355 355 352 350 349 348 348 347 346 342 341 340 340 339 339 337 336 334 334 334 335 335 335 335 335 337 338 340 341 343 344 350 352 354 355 355 357 357 359 356 358
328 337 351 354 353 352 351 350 349 348 347 344 342 340 340 341 340 340 339 339 338 337 337 337 337 336 336 336 338 340 341 342 343 347 352 349 348 354 354 357 357 359 358
333 340 347 354 354 352 352 351 350 348 346 345 344 344 344 344 343 342 341 341 341 340 340 340 339 338 337 337 336 339 341 341 344 345 346 348 348 352 353 354 356 357 357
334 341 345 354 353 353 352 352 351 349 348 346 346 346 345 345 344 343 342 342 343 343 342 341 341 340 340 338 338 341 340 342 344 343 344 344 344 349 352 352 354 356 356
332 339 347 355 354 354 353 352 352 350 349 347 348 346 345 344 343 343 343 343 342 342 341 342 342 342 341 340 342 341 342 344 343 339 342 344 344 349 351 351 353 355 356
331 336 344 354 354 354 353 351 350 350 350 349 348 346 345 344 343 342 342 341 341 341 340 340 341 343 342 342 343 342 343 342 338 338 340 341 342 348 352 351 353 353 354
334 336 343 353 354 354 354 352 352 352 350 348 346 344 343 342 342 341 341 341 339 339 340 340 342 343 342 342 342 343 343 342 339 337 339 339 343 348 351 353 354 353 353
337 340 344 347 351 354 353 353 352 348 346 344 342 338 336 335 336 336 337 337 338 338 338 339 340 342 342 341 340 341 342 342 335 336 338 337 345 349 352 354 355 354 353
338 341 342 342 344 342 343 350 348 345 343 340 336 335 335 335 334 334 334 335 336 336 336 338 338 341 341 340 340 339 340 340 334 334 336 337 346 349 351 353 353 353 352
331 331 333 333 332 333 335 338 343 342 338 336 335 336 334 327 325 327 329 332 334 336 337 337 337 340 339 338 338 338 338 331 332 333 334 342 347 350 351 353 353 352 351
321 323 326 326 328 329 333 330 329 328 327 327 328 325 323 321 320 325 329 333 334 335 335 336 337 338 337 329 330 336 328 330 331 333 333 342 346 350 350 352 352 351 352
319 317 318 320 324 325 325 324 325 324 321 321 323 322 320 322 321 321 321 321 322 328 326 328 330 330 330 327 326 327 328 329 329 331 335 342 345 349 350 351 351 351 350
311 314 316 318 319 319 321 322 322 320 320 319 320 321 319 319 319 319 319 321 321 322 322 323 324 325 325 326 326 325 326 328 328 328 331 341 345 348 350 350 349 349 349
310 313 316 317 318 319 320 320 320 320 321 320 319 320 321 319 319 319 321 323 323 322 321 320 322 323 324 325 324 324 323 325 328 328 328 338 345 347 348 349 349 347 347
312 314 316 318 320 321 320 320 320 320 320 320 321 321 323 321 319 320 321 321 318 318 319 320 321 321 321 322 323 323 322 325 327 328 329 332 343 346 347 347 347 348 348
314 316 318 319 321 321 319 320 320 321 322 321 322 322 322 321 320 320 318 317 318 318 318 319 319 320 320 321 321 322 322 324 326 328 330 332 335 344 345 347 348 347 347
316 317 318 323 320 320 319 319 320 321 321 321 321 321 323 322 321 319 317 317 319 318 317 317 317 317 317 318 318 319 322 323 326 328 330 332 332 336 344 346 346 346 345
317 317 317 319 318 318 317 318 320 321 321 322 321 321 322 324 323 319 317 318 319 317 316 316 315 317 316 317 318 319 321 321 325 330 330 331 332 334 336 342 343 344 345
315 316 317 317 317 317 318 318 319 320 320 322 322 322 323 322 323 318 317 318 319 316 315 314 314 316 316 316 321 320 319 321 324 326 329 333 334 335 335 337 339 340 343
315 316 317 316 316 318 317 316 317 317 318 320 323 324 324 325 322 320 318 319 318 316 315 315 315 315 315 317 315 315 320 324 326 328 331 331 333 334 335 336 337 336 335
315 316 316 317 318 318 316 318 318 317 320 320 321 326 327 325 323 323 320 319 317 315 314 315 315 314 315 316 313 313 310 315 324 327 330 330 332 334 334 334 331 332 333
316 316 317 317 318 318 318 318 318 318 319 319 319 320 321 323 324 324 322 319 317 316 314 314 315 316 314 317 317 315 312 308 319 326 328 330 331 330 332 332 331 332 333
315 317 318 318 317 317 319 317 316 316 315 316 317 318 319 322 323 323 321 319 317 316 314 315 317 316 316 315 317 321 318 318 315 316 325 327 330 328 329 330 330 331 332
314 317 317 318 316 318 318 317 318 315 316 317 317 316 317 319 322 322 320 319 317 316 315 317 317 317 317 316 318 320 321 319 321 321 317 321 326 328 329 329 330 331 332
314 316 316 316 317 318 318 318 317 316 315 314 315 315 315 317 320 320 321 318 317 316 318 317 317 318 318 318 321 322 321 319 319 320 320 320 321 324 328 329 329 330 331
Wind_Speed
14 11 23 20 19 18 18 18 17 16 15 14 13 12 11 9 8 7 6 5 6 6 6 7 6 6 5 5 6 6 7 6 8 9 9 11 8 12 11 13 15 11 16
16 12 20 19 20 19 18 17 16 16 14 14 13 13 12 12 11 9 8 8 7 8 8 8 8 8 8 6 6 7 8 7 8 9 10 12 11 14 13 14 17 13 16
13 12 17 21 20 18 17 17 16 15 14 14 13 12 12 12 12 11 10 10 9 10 10 10 10 10 9 8 8 8 7 8 8 9 10 4 4 14 14 15 15 17 16
12 13 16 21 19 18 17 16 15 15 15 14 14 13 14 13 12 11 12 12 12 12 11 11 11 11 10 10 10 9 8 8 9 9 5 4 6 10 13 15 16 18 17
12 13 14 21 19 18 17 16 15 15 14 15 14 16 14 13 14 14 15 15 14 15 14 14 12 12 11 11 11 9 10 9 9 8 5 5 4 7 12 14 16 17 17
10 11 14 19 19 18 17 16 16 15 15 15 15 15 13 14 13 14 15 15 15 15 16 16 16 14 13 13 11 10 11 9 10 4 4 5 5 9 14 14 17 16 16
8 8 11 19 19 18 18 17 15 14 13 15 14 13 13 15 14 15 15 16 16 17 17 18 17 16 14 13 11 10 11 8 6 4 5 5 5 10 14 15 16 18 16
12 8 9 18 18 18 17 16 15 13 11 12 10 8 8 10 12 13 14 15 17 17 18 19 18 15 13 13 11 10 10 9 6 5 5 5 9 11 15 15 17 18 19
8 9 8 10 14 17 15 14 12 12 11 11 10 9 9 10 12 13 16 17 18 18 19 20 19 16 13 14 14 11 8 9 6 4 4 4 11 13 14 16 18 19 20
6 8 9 8 8 7 6 12 13 13 12 11 11 10 9 10 10 11 12 12 16 18 19 19 20 18 16 15 15 13 11 10 5 5 4 4 12 15 16 17 19 21 21
5 6 6 7 7 7 6 7 11 12 11 11 10 10 8 3 5 7 8 11 13 16 17 19 19 18 16 17 16 15 13 3 5 4 3 10 14 15 16 17 19 21 23
9 7 7 6 7 7 5 5 5 4 3 4 5 5 3 4 5 5 8 11 12 14 14 13 16 17 15 4 5 13 3 4 4 4 3 12 14 16 16 17 20 22 23
14 7 8 7 7 7 5 4 2 2 3 3 6 5 5 4 3 3 3 3 3 7 3 5 5 3 4 4 4 4 4 4 3 3 5 12 14 15 17 18 20 22 23
9 9 9 8 7 7 4 4 4 4 4 4 5 6 4 3 4 4 3 4 3 3 4 3 2 2 4 5 5 5 5 4 3 3 6 13 14 16 18 18 23 22 25
9 9 12 9 8 6 6 4 4 5 4 5 5 5 4 4 4 3 4 3 3 3 2 3 3 3 4 4 5 4 5 5 5 3 3 14 14 15 18 20 25 27 26
10 13 11 10 8 7 6 7 5 4 5 4 4 5 6 4 4 4 4 3 4 3 3 3 3 3 3 3 4 5 5 5 5 5 4 5 13 13 14 19 23 26 27
11 13 13 10 8 8 8 6 5 4 4 4 4 5 6 5 5 5 4 4 4 3 4 3 3 2 2 2 4 4 4 6 5 5 5 4 5 12 15 20 24 26 27
12 13 9 8 8 7 6 5 4 4 4 4 4 4 5 6 5 5 3 4 4 3 3 3 3 3 3 3 3 4 4 4 6 5 4 3 3 3 13 20 23 24 25
12 11 9 8 9 8 6 4 4 5 4 4 4 4 5 6 5 5 4 4 4 3 4 3 2 3 3 3 3 3 4 4 4 2 4 3 4 4 5 20 23 22 23
9 9 8 7 7 7 3 3 2 3 3 3 3 4 5 4 5 5 4 5 4 3 3 2 3 2 2 3 2 3 2 2 2 3 4 3 3 3 5 7 7 14 20
9 9 8 9 7 4 2 2 1 3 2 2 3 5 5 4 4 5 4 4 4 4 4 4 3 4 3 2 2 2 3 3 3 3 4 3 4 4 6 8 5 9 14
12 9 8 8 7 4 2 2 2 2 3 2 2 3 4 5 6 5 5 4 5 3 4 5 4 3 2 4 3 3 2 3 3 1 2 4 5 4 8 10 11 12 9
12 10 9 8 8 4 4 2 1 1 1 2 2 2 1 3 4 5 5 5 5 4 4 4 5 5 4 1 3 4 3 2 2 1 3 4 6 5 7 9 14 12 7
9 8 8 8 7 5 6 2 2 2 1 1 2 1 1 1 2 3 4 5 5 3 5 5 4 3 4 4 1 1 2 4 3 3 2 3 7 7 9 7 10 10 8
8 8 7 7 6 6 5 4 3 1 1 1 1 2 1 2 0 2 4 4 4 2 4 5 5 4 3 4 4 3 2 1 1 4 3 4 5 7 7 6 9 9 10
7 7 7 8 6 6 4 3 4 3 3 1 0 1 1 1 2 1 3 3 2 2 4 4 4 5 4 2 2 4 2 3 3 4 3 5 6 5 7 7 7 7 7
Wind_Direction
211 184 185 181 179 177 171 175 178 182 181 180 180 181 181 186 195 203 212 232 250 253 259 265 262 273 269 282 289 291 289 299 308 313 272 230 192 181 167 161 152 150 146
172 172 180 182 184 182 178 181 184 186 187 190 195 198 197 202 206 212 221 228 243 263 269 267 265 253 260 261 277 283 283 289 300 309 287 238 210 185 187 173 166 160 149
160 160 177 185 189 183 183 186 189 190 192 197 203 212 215 214 217 223 231 236 239 247 255 266 265 264 257 257 259 266 274 282 290 297 294 237 194 192 202 192 180 161 155
151 163 176 186 189 186 189 192 193 197 200 207 212 219 227 226 226 239 245 245 245 251 253 253 261 259 256 255 256 264 270 272 283 286 297 245 226 206 207 199 185 169 162
158 165 175 184 186 189 192 195 197 202 206 216 221 231 235 226 229 235 240 245 245 248 251 258 253 254 257 251 252 252 264 259 266 271 292 250 222 220 204 203 198 177 170
164 165 177 182 187 191 193 196 200 205 213 221 232 240 240 236 235 237 242 246 248 253 258 261 262 249 248 249 242 247 260 264 254 264 269 260 230 224 210 207 206 190 170
160 163 172 184 187 190 193 195 200 211 220 228 235 239 246 249 251 249 250 248 247 252 254 256 256 252 244 247 244 238 252 247 238 238 252 255 249 223 222 208 209 197 178
161 162 174 183 187 191 192 195 197 212 222 231 229 233 254 263 267 268 262 259 259 259 261 258 256 253 249 247 244 235 237 234 237 230 243 244 249 236 222 210 204 192 181
158 159 166 178 188 193 195 197 192 197 202 206 212 226 246 264 271 272 270 268 267 266 261 259 260 258 256 245 240 231 237 243 224 231 242 243 249 247 228 213 202 192 187
155 168 172 169 176 174 185 196 196 196 200 210 215 229 240 251 257 262 268 275 272 271 269 264 259 257 250 243 238 232 234 246 238 229 238 254 253 246 233 222 204 192 187
186 182 169 171 166 165 172 196 201 200 205 215 229 236 244 234 241 257 265 268 271 267 265 258 253 249 246 235 227 224 230 227 239 232 219 251 258 251 239 224 207 194 187
197 199 184 175 168 164 167 181 178 212 217 230 229 229 246 238 228 239 255 272 275 282 278 283 251 248 239 182 211 221 204 223 226 236 219 246 256 251 246 214 202 190 183
197 174 176 175 178 167 160 173 183 203 227 236 220 217 234 238 236 254 267 279 276 277 274 292 272 236 176 173 189 195 211 222 227 237 238 247 253 249 243 210 195 186 171
175 177 161 170 161 166 156 172 187 201 218 219 218 221 216 224 232 243 244 252 263 265 272 280 269 202 185 189 190 204 218 227 231 239 246 250 249 243 239 204 190 175 164
175 166 169 161 153 166 169 175 200 208 203 211 216 232 213 220 228 225 238 243 270 268 239 259 248 200 199 194 212 200 231 237 245 238 237 252 253 235 236 205 186 176 166
169 169 163 164 167 164 178 191 203 200 214 216 220 219 219 212 222 213 236 244 251 247 268 239 225 201 200 186 218 221 240 244 246 237 231 247 255 230 221 206 192 183 167
173 157 166 163 172 175 193 197 203 217 216 224 229 229 220 211 215 208 222 244 240 230 243 237 234 200 204 203 234 236 248 250 250 243 228 225 252 228 211 194 188 181 169
151 160 161 164 176 186 193 203 217 228 232 232 233 227 217 209 199 202 217 239 239 224 219 211 195 201 207 201 228 236 248 253 255 228 222 216 208 183 200 192 181 181 174
157 155 162 167 177 190 203 224 230 245 238 234 232 222 208 203 203 197 211 230 223 212 215 198 189 161 184 212 227 239 251 248 254 213 199 196 211 180 180 199 189 184 179
148 154 156 163 174 189 185 231 264 260 263 248 241 231 207 207 207 199 218 229 203 197 215 183 168 187 157 191 225 236 263 307 276 211 171 149 159 154 162 145 183 183 166
146 147 163 149 180 145 179 215 298 258 285 278 239 235 222 204 220 206 219 223 182 199 198 188 154 178 200 141 115 43 32 17 273 168 165 164 127 121 131 115 126 125 143
150 156 153 162 169 174 165 207 179 221 259 256 281 253 222 218 227 211 202 206 186 177 183 175 172 139 174 182 140 99 74 5 12 112 117 134 121 108 119 126 119 119 141
155 160 159 168 168 177 190 129 75 316 337 2 327 287 265 233 237 193 196 192 181 172 182 181 175 163 154 150 220 134 133 186 92 112 167 117 133 108 117 133 135 137 141
164 147 150 159 163 185 179 146 162 185 277 259 264 291 322 282 160 178 192 178 170 171 186 189 183 179 142 148 150 170 171 139 151 151 114 148 104 107 112 116 119 125 113
140 154 156 156 170 188 168 144 158 168 209 316 302 61 354 348 130 156 169 145 154 166 198 185 174 183 168 151 151 148 119 128 113 119 118 145 107 114 113 112 126 127 125
132 140 145 160 188 188 165 174 165 151 137 181 212 81 3 314 30 106 128 139 127 201 162 149 155 162 178 172 149 133 163 162 145 113 118 102 115 109 112 112 121 129 121